Weather Roundup
Issued by NWS Springfield, MO

Home | Current Version | Previous Version | Text Only | Print | Product List | Glossary On
Versions: 1 2 3 4 5 6 7 8 9 10 11 12 13 14 15 16 17 18 19 20 21 22 23 24 25 26 27 28 29 30 31 32 33 34 35 36 37 38 39 40 41 42 43 44 45 46 47 48 49 50
000
NZUS99 KSGF 030159
HRRSGF

HOURLY WEATHER
NATIONAL WEATHER SERVICE SPRINGFIELD MO
900 PM CDT SUN AUG 02 2015

......SGF CWA......

CITY           SKY/WX    TMP DP  RH WIND       PRES   REMARKS
SPRINGFIELD    CLEAR     77  66  68 SW5       29.92R
JOPLIN         CLEAR     79  64  60 S6        29.90S
WEST PLAINS    CLEAR     78  69  73 CALM      29.93R
ROLLA          CLEAR     74  68  81 S6        29.88R
OSAGE BEACH    CLEAR     81  70  69 CALM      29.88S
BRANSON        PTCLDY    81  66  61 CALM      29.93S

......SURROUNDING SGF CWA......

CITY           SKY/WX    TMP DP  RH WIND       PRES   REMARKS
CHANUTE        CLEAR     80  63  55 SW6       29.89R
PARSONS        CLEAR     77  70  79 CALM      29.90R
COFFEYVILLE    CLEAR     82  62  50 SW8       29.88R
EMPORIA        CLEAR     79  67  66 SW7       29.88R
GROVE OK       CLEAR     81  70  69 CALM      29.91R
SILOAM SPRINGS CLEAR     79  64  61 CALM      29.91R
HARRISON AR    CLEAR     78  67  68 W3        29.93F
NEAR YELLVILLE PTCLDY    81  66  61 CALM      29.88S

......KANSAS AND MISSOURI......

CITY           SKY/WX    TMP DP  RH WIND       PRES   REMARKS
KANSAS CTY INT MOCLDY    79  72  79 SW7       29.84F
DOWNTOWN KC    PTCLDY    87  70  56 SW6       29.82F HX  92
COLUMBIA       CLEAR     78  70  76 S8        29.86S
SEDALIA        PTCLDY    81  67  62 S7        29.87R
ST JOSEPH        N/A     81  75  82 SW5       29.81F
ST LOUIS       PTCLDY    88  66  48 SW7       29.84S HX  90
SPIRIT OF STL  CLEAR     80  70  71 CALM      29.83S
KIRKSVILLE     TSTM      71  61  70 N25G49    29.97R
WICHITA        PTCLDY    81  69  67 S7        29.88R
TOPEKA         PTCLDY    86  72  62 S5        29.84S HX  92
OLATHE         MOCLDY    83  70  64 SW3       29.86R

......TENNESSEE......

CITY           SKY/WX    TMP DP  RH WIND       PRES   REMARKS
MEMPHIS        PTCLDY    86  67  52 CALM      29.89S
NASHVILLE      PTCLDY    80  59  48 NW3       29.91F

......ARKANSAS.......

CITY           SKY/WX    TMP DP  RH WIND       PRES   REMARKS
FAYETTEVILLE   CLEAR     76  72  87 CALM      29.92F
FT SMITH       CLEAR     86  68  54 CALM      29.86S
LITTLE ROCK    PTCLDY    83  68  60 S5        29.87F

......OKLAHOMA.......

CITY           SKY/WX    TMP DP  RH WIND       PRES   REMARKS
TULSA          PTCLDY    84  69  60 W3        29.86S
PONCA CITY     CLEAR     83  66  56 SE9       29.88R
MCALESTER      PTCLDY    77  68  73 CALM      29.88F
OKLAHOMA CITY  MOCLDY    76  67  73 SE7       29.89S

......IOWA............

CITY           SKY/WX    TMP DP  RH WIND       PRES   REMARKS
DES MOINES     PTCLDY    77  67  71 SW7       29.81R
QUAD CITIES    PTCLDY    84  74  71 SW13      29.71F HX  91

......ILLINOIS........

CITY           SKY/WX    TMP DP  RH WIND       PRES   REMARKS
QUINCY         CLOUDY    79  72  79 SW8       29.81S
CHICAGO        MOCLDY    85  70  60 SW14G26   29.65F



USA.gov is the U.S. government's official web portal to all federal, state and local government web resources and services.